When you browse on this site, cookies collect data to enhance your experience and personalize the content and advertising you see.
Visit our Privacy Policy to learn more. By continuing to use the site, you agree to this use of cookies and data.
  • In Slovakia
  • List of Countries
  • For 7 days
  • Water Temperature
  • Weather Map
  • Weather Widgets
  • user-avatar
    Login

    Hourly Weather Kerns

    Today, 29 January, Wednesday

    Time Temperature Precipitation Wind Pressure Humidity
    00:00 +27°C° 0.4 mm 1 mps 755 mmHg 97%
    01:00 +27°C° 0.4 mm 1 mps 755 mmHg 97%
    02:00 +27°C° 0.5 mm 1 mps 754 mmHg 97%
    03:00 +27°C° 0.5 mm 1 mps 754 mmHg 97%
    04:00 +27°C° 0 mm 1 mps 754 mmHg 97%
    05:00 +27°C° 1.1 mm 1 mps 754 mmHg 97%
    06:00 +27°C° 1.1 mm 1 mps 755 mmHg 97%
    07:00 +27°C° 1.1 mm 1 mps 755 mmHg 97%
    08:00 +27°C° 4.2 mm 1 mps 756 mmHg 98%
    09:00 +27°C° 4.2 mm 1 mps 756 mmHg 98%
    10:00 +27°C° 0 mm 1 mps 756 mmHg 98%
    11:00 +27°C° 4.8 mm 1 mps 756 mmHg 98%
    12:00 +28°C° 4.8 mm 1 mps 756 mmHg 98%
    13:00 +26°C° 4.8 mm 0 mps 756 mmHg 98%
    14:00 +28°C° 0.8 mm 1 mps 755 mmHg 98%
    15:00 +28°C° 0.8 mm 1 mps 755 mmHg 98%
    16:00 +28°C° 0 mm 1 mps 755 mmHg 97%
    17:00 +28°C° 0.3 mm 1 mps 755 mmHg 97%
    18:00 +27°C° 0.3 mm 2 mps 756 mmHg 97%
    19:00 +27°C° 0.3 mm 2 mps 756 mmHg 97%
    20:00 +27°C° 0.4 mm 2 mps 757 mmHg 97%
    21:00 +27°C° 0.4 mm 3 mps 757 mmHg 97%
    22:00 +27°C° 0 mm 3 mps 757 mmHg 98%
    23:00 +27°C° 0.3 mm 3 mps 757 mmHg 98%

    Tomorrow, 30 January, Thursday

    Time Temperature Precipitation Wind Pressure Humidity
    00:00 +27°C° 0.3 mm 3 mps 757 mmHg 98%
    01:00 +27°C° 0.3 mm 3 mps 756 mmHg 98%
    02:00 +27°C° 1 mm 2 mps 756 mmHg 98%
    03:00 +27°C° 1 mm 2 mps 756 mmHg 98%
    04:00 +27°C° 1 mm 2 mps 755 mmHg 98%
    05:00 +27°C° 1 mm 2 mps 756 mmHg 97%
    06:00 +27°C° 1 mm 2 mps 756 mmHg 97%
    07:00 +27°C° 1 mm 1 mps 757 mmHg 96%
    08:00 +28°C° 0.3 mm 2 mps 757 mmHg 92%
    09:00 +29°C° 0.3 mm 2 mps 757 mmHg 88%
    10:00 +30°C° 0.3 mm 2 mps 757 mmHg 84%
    11:00 +30°C° 0.7 mm 2 mps 757 mmHg 84%
    12:00 +31°C° 0.7 mm 3 mps 757 mmHg 84%
    13:00 +31°C° 0.7 mm 3 mps 756 mmHg 84%
    14:00 +30°C° 0.3 mm 3 mps 756 mmHg 86%
    15:00 +29°C° 0.3 mm 2 mps 755 mmHg 89%
    16:00 +29°C° 0.3 mm 2 mps 755 mmHg 91%
    17:00 +28°C° 0 mm 2 mps 755 mmHg 92%
    18:00 +28°C° 0 mm 1 mps 756 mmHg 93%
    19:00 +28°C° 0 mm 1 mps 756 mmHg 94%
    20:00 +27°C° 0.2 mm 1 mps 757 mmHg 94%
    21:00 +27°C° 0.2 mm 1 mps 757 mmHg 94%
    22:00 +27°C° 0.2 mm 1 mps 758 mmHg 94%
    23:00 +27°C° 0.2 mm 2 mps 757 mmHg 94%

    Day after tomorrow, 31 January, Friday

    Time Temperature Precipitation Wind Pressure Humidity
    00:00 +26°C° 0.2 mm 2 mps 757 mmHg 94%
    01:00 +26°C° 0.2 mm 2 mps 757 mmHg 94%
    02:00 +26°C° 0.3 mm 2 mps 756 mmHg 94%
    03:00 +26°C° 0.3 mm 2 mps 756 mmHg 94%
    04:00 +26°C° 0.3 mm 3 mps 756 mmHg 95%
    05:00 +26°C° 0.2 mm 3 mps 756 mmHg 94%
    06:00 +27°C° 0.2 mm 3 mps 757 mmHg 93%
    07:00 +27°C° 0.2 mm 3 mps 757 mmHg 93%
    08:00 +29°C° 0.1 mm 3 mps 757 mmHg 84%
    09:00 +30°C° 0.1 mm 3 mps 758 mmHg 76%
    10:00 +33°C° 0.1 mm 4 mps 758 mmHg 68%
    11:00 +33°C° 0.8 mm 4 mps 757 mmHg 73%
    12:00 +32°C° 0.8 mm 4 mps 757 mmHg 79%
    13:00 +32°C° 0.8 mm 4 mps 756 mmHg 84%
    14:00 +30°C° 1.5 mm 4 mps 756 mmHg 86%
    15:00 +30°C° 1.5 mm 4 mps 755 mmHg 88%
    16:00 +30°C° 1.5 mm 4 mps 755 mmHg 90%
    17:00 +29°C° 1 mm 4 mps 756 mmHg 92%
    18:00 +28°C° 1 mm 4 mps 756 mmHg 94%
    19:00 +27°C° 1 mm 4 mps 757 mmHg 96%
    20:00 +27°C° 0.2 mm 4 mps 757 mmHg 97%
    21:00 +27°C° 0.2 mm 4 mps 758 mmHg 97%
    22:00 +26°C° 0.2 mm 3 mps 758 mmHg 97%
    23:00 +26°C° 0 mm 3 mps 758 mmHg 97%

    1 February, Saturday

    Time Temperature Precipitation Wind Pressure Humidity
    00:00 +26°C° 0 mm 3 mps 757 mmHg 97%
    01:00 +26°C° 0 mm 3 mps 757 mmHg 97%
    02:00 +26°C° 0 mm 2 mps 757 mmHg 97%
    03:00 +25°C° 0 mm 2 mps 757 mmHg 97%
    04:00 +25°C° 0 mm 2 mps 756 mmHg 97%
    05:00 +25°C° 0 mm 2 mps 757 mmHg 97%
    06:00 +25°C° 0 mm 2 mps 757 mmHg 96%
    07:00 +26°C° 0 mm 2 mps 757 mmHg 96%
    08:00 +28°C° 0 mm 2 mps 757 mmHg 86%
    09:00 +30°C° 0 mm 3 mps 758 mmHg 77%
    10:00 +33°C° 0 mm 3 mps 758 mmHg 68%
    11:00 +34°C° 0 mm 3 mps 757 mmHg 65%
    12:00 +34°C° 0 mm 3 mps 757 mmHg 62%
    13:00 +35°C° 0 mm 3 mps 756 mmHg 59%
    14:00 +34°C° 0.1 mm 4 mps 756 mmHg 61%
    15:00 +34°C° 0.1 mm 4 mps 756 mmHg 63%
    16:00 +33°C° 0.1 mm 4 mps 755 mmHg 65%
    17:00 +31°C° 0 mm 3 mps 756 mmHg 72%
    18:00 +29°C° 0 mm 3 mps 756 mmHg 78%
    19:00 +28°C° 0 mm 3 mps 757 mmHg 85%
    20:00 +27°C° 0 mm 3 mps 757 mmHg 88%
    21:00 +27°C° 0 mm 3 mps 757 mmHg 90%
    22:00 +26°C° 0 mm 3 mps 758 mmHg 93%
    23:00 +26°C° 0.2 mm 2 mps 757 mmHg 94%

    2 February, Sunday

    Time Temperature Precipitation Wind Pressure Humidity
    00:00 +26°C° 0.2 mm 2 mps 757 mmHg 95%
    01:00 +26°C° 0.2 mm 2 mps 757 mmHg 96%
    02:00 +26°C° 0.3 mm 2 mps 756 mmHg 96%
    03:00 +26°C° 0.3 mm 2 mps 756 mmHg 95%
    04:00 +26°C° 0.3 mm 2 mps 756 mmHg 95%
    05:00 +26°C° 0 mm 2 mps 756 mmHg 94%
    06:00 +26°C° 0 mm 2 mps 757 mmHg 92%
    07:00 +26°C° 0 mm 2 mps 757 mmHg 91%
    08:00 +28°C° 0.1 mm 2 mps 757 mmHg 83%
    09:00 +30°C° 0.1 mm 2 mps 757 mmHg 75%
    10:00 +32°C° 0.1 mm 2 mps 757 mmHg 68%
    11:00 +32°C° 0.6 mm 2 mps 757 mmHg 71%
    12:00 +31°C° 0.6 mm 2 mps 756 mmHg 75%
    13:00 +31°C° 0.6 mm 2 mps 756 mmHg 78%
    14:00 +31°C° 0.4 mm 2 mps 755 mmHg 79%
    15:00 +31°C° 0.4 mm 2 mps 755 mmHg 79%
    16:00 +31°C° 0.4 mm 2 mps 754 mmHg 80%
    17:00 +30°C° 0.2 mm 2 mps 755 mmHg 84%
    18:00 +29°C° 0.2 mm 2 mps 755 mmHg 88%
    19:00 +28°C° 0.2 mm 1 mps 756 mmHg 92%
    20:00 +27°C° 0.1 mm 2 mps 756 mmHg 93%
    21:00 +27°C° 0.1 mm 2 mps 756 mmHg 94%
    22:00 +26°C° 0.1 mm 2 mps 757 mmHg 95%
    23:00 +26°C° 0 mm 2 mps 757 mmHg 95%

    3 February, Monday

    Time Temperature Precipitation Wind Pressure Humidity
    00:00 +26°C° 0 mm 1 mps 757 mmHg 95%
    01:00 +26°C° 0 mm 1 mps 756 mmHg 95%
    02:00 +26°C° 0 mm 1 mps 756 mmHg 95%
    03:00 +25°C° 0 mm 1 mps 756 mmHg 95%
    04:00 +25°C° 0 mm 1 mps 755 mmHg 95%
    05:00 +26°C° 0 mm 1 mps 756 mmHg 94%
    06:00 +26°C° 0 mm 1 mps 756 mmHg 93%
    07:00 +26°C° 0 mm 1 mps 757 mmHg 92%
    08:00 +29°C° 0 mm 1 mps 757 mmHg 82%
    09:00 +31°C° 0 mm 1 mps 757 mmHg 72%
    10:00 +34°C° 0 mm 2 mps 757 mmHg 62%
    11:00 +34°C° 0 mm 2 mps 756 mmHg 61%
    12:00 +35°C° 0 mm 2 mps 756 mmHg 61%
    13:00 +35°C° 0 mm 3 mps 755 mmHg 60%
    14:00 +35°C° 0.2 mm 2 mps 755 mmHg 62%
    15:00 +34°C° 0.2 mm 2 mps 754 mmHg 65%
    16:00 +34°C° 0.2 mm 2 mps 754 mmHg 67%
    17:00 +31°C° 0.1 mm 2 mps 754 mmHg 73%
    18:00 +30°C° 0.1 mm 1 mps 755 mmHg 79%
    19:00 +28°C° 0.1 mm 1 mps 755 mmHg 84%
    20:00 +28°C° 0 mm 1 mps 755 mmHg 86%
    21:00 +27°C° 0 mm 1 mps 756 mmHg 89%
    22:00 +27°C° 0 mm 1 mps 756 mmHg 91%
    23:00 +26°C° 0 mm 1 mps 756 mmHg 91%
    Show more